Weather History for Inverness, FL

Change the Weather History Date:

Sunday, May 26, 2013

  Actual Average (KOCF) Record (KOCF)
Temperature  
Mean Temperature 71 °F -  
Max Temperature 89 °F 87 °F 95 °F (2000)
Min Temperature 53 °F 63 °F 53 °F (2013)
Cooling Degree Days 6    
Growing Degree Days 21 (Base 50)    
Moisture  
Dew Point 53 °F    
Average Humidity 57    
Maximum Humidity 100    
Minimum Humidity 24    
Precipitation  
Precipitation 0.00 in - - ()
Sea Level Pressure  
Sea Level Pressure 30.20 in    
Wind  
Wind Speed 2 mph (East)    
Max Wind Speed 9 mph    
Max Gust Speed 16 mph    
Visibility 10 miles    
Events      
Averages and records for this station are not official NWS values.
T = Trace of Precipitation, MM = Missing Value Source: NWS Daily Summary

Daily Weather History Graph

Daily Weather History Graph

Search for Another Location

Airport:

Trip Planner

Search our weather history database for the weather conditions in past years. The results will help you decide how hot, cold, wet, or windy it might be!

Date:

Astronomy

May. 26, 2013 Rise Set
Actual Time 6:32 AM EDT 8:20 PM EDT
Civil Twilight 6:06 AM EDT 8:46 PM EDT
Nautical Twilight 5:34 AM EDT 9:18 PM EDT
Astronomical Twilight 5:01 AM EDT 9:51 PM EDT
Moon 10:08 PM EDT (5/26) 7:59 AM EDT (5/26)
Length of Visible Light 14h 39m
Length of Day
13h 47m
Waning Gibbous, 97% of the Moon is Illuminated
May 26
Waning Gibbous
May 31
Last Quarter
Jun 8
New
Jun 16
First Quarter
Jun 23
Full

Hourly Weather History & Observations

Time (EDT) Temp. Heat Index Dew Point Humidity Pressure Visibility Wind Dir Wind Speed Gust Speed Precip Events Conditions
12:15 AM 68.0 °F - 55.4 °F 64% 30.22 in 10.0 mi Calm Calm - N/A   Clear
12:35 AM 68.0 °F - 55.4 °F 64% 30.22 in 10.0 mi Calm Calm - N/A   Clear
12:55 AM 64.4 °F - 55.4 °F 73% 30.21 in 10.0 mi Calm Calm - N/A   Clear
1:15 AM 66.2 °F - 55.4 °F 68% 30.21 in 10.0 mi Calm Calm - N/A   Clear
1:35 AM 64.4 °F - 55.4 °F 73% 30.21 in 10.0 mi Calm Calm - N/A   Clear
1:55 AM 62.6 °F - 55.4 °F 77% 30.20 in 10.0 mi Calm Calm - N/A   Clear
2:15 AM 60.8 °F - 55.4 °F 82% 30.20 in 10.0 mi Calm Calm - N/A   Clear
2:35 AM 60.8 °F - 55.4 °F 82% 30.19 in 10.0 mi Calm Calm - N/A   Clear
2:55 AM 59.0 °F - 55.4 °F 88% 30.19 in 10.0 mi Calm Calm - N/A   Clear
3:15 AM 57.2 °F - 55.4 °F 94% 30.19 in 10.0 mi Calm Calm - N/A   Clear
3:35 AM 57.2 °F - 55.4 °F 94% 30.19 in 10.0 mi Calm Calm - N/A   Clear
3:55 AM 55.4 °F - 53.6 °F 94% 30.19 in 10.0 mi Calm Calm - N/A   Clear
4:15 AM 55.4 °F - 55.4 °F 100% 30.19 in 10.0 mi Calm Calm - N/A   Clear
4:35 AM 55.4 °F - 53.6 °F 94% 30.18 in 10.0 mi Calm Calm - N/A   Clear
4:55 AM 55.4 °F - 55.4 °F 100% 30.18 in 10.0 mi Calm Calm - N/A   Clear
5:15 AM 55.4 °F - 55.4 °F 100% 30.19 in 10.0 mi Calm Calm - N/A   Clear
5:35 AM 53.6 °F - 53.6 °F 100% 30.19 in 10.0 mi Calm Calm - N/A   Clear
5:55 AM 53.6 °F - 53.6 °F 100% 30.19 in 10.0 mi Calm Calm - N/A   Clear
6:15 AM 53.6 °F - 53.6 °F 100% 30.20 in 10.0 mi Calm Calm - N/A   Clear
6:35 AM 53.6 °F - 53.6 °F 100% 30.21 in 10.0 mi Calm Calm - N/A   Clear
6:55 AM 53.6 °F - 53.6 °F 100% 30.22 in 10.0 mi Calm Calm - N/A   Clear
7:15 AM 55.4 °F - 55.4 °F 100% 30.22 in 10.0 mi Calm Calm - N/A   Clear
7:35 AM 59.0 °F - 57.2 °F 94% 30.22 in 10.0 mi Calm Calm - N/A   Clear
7:55 AM 62.6 °F - 59.0 °F 88% 30.22 in 10.0 mi Calm Calm - N/A   Clear
8:15 AM 66.2 °F - 59.0 °F 78% 30.23 in 10.0 mi Calm Calm - N/A   Clear
8:35 AM 69.8 °F - 59.0 °F 68% 30.23 in 10.0 mi ESE 4.6 mph - N/A   Clear
8:55 AM 71.6 °F - 59.0 °F 64% 30.24 in 10.0 mi Calm Calm - N/A   Clear
9:15 AM 73.4 °F - 57.2 °F 57% 30.24 in 10.0 mi East 3.5 mph - N/A   Clear
9:35 AM 77.0 °F - 53.6 °F 44% 30.24 in 10.0 mi SE 4.6 mph - N/A   Clear
9:55 AM 77.0 °F - 53.6 °F 44% 30.24 in 10.0 mi ESE 4.6 mph - N/A   Clear
10:15 AM 78.8 °F - 53.6 °F 42% 30.24 in 10.0 mi East 4.6 mph - N/A   Clear
10:35 AM 78.8 °F - 50.0 °F 36% 30.24 in 10.0 mi East 4.6 mph - N/A   Clear
10:55 AM 80.6 °F - 51.8 °F 37% 30.24 in 10.0 mi ENE 4.6 mph - N/A   Clear
11:15 AM 80.6 °F - 51.8 °F 37% 30.24 in 10.0 mi North 8.1 mph - N/A   Clear
11:35 AM 80.6 °F - 51.8 °F 37% 30.23 in 10.0 mi NNE 4.6 mph - N/A   Clear
11:55 AM 82.4 °F - 50.0 °F 32% 30.23 in 7.0 mi ENE 9.2 mph - N/A   Clear
12:15 PM 84.2 °F - 48.2 °F 29% 30.23 in 10.0 mi East 6.9 mph - N/A   Clear
12:35 PM 82.4 °F - 48.2 °F 30% 30.23 in 10.0 mi East 6.9 mph - N/A   Clear
12:55 PM 86.0 °F - 50.0 °F 29% 30.22 in 10.0 mi SE 8.1 mph - N/A   Clear
1:15 PM 84.2 °F - 50.0 °F 30% 30.22 in 10.0 mi East 5.8 mph - N/A   Clear
1:35 PM 86.0 °F - 48.2 °F 27% 30.21 in 10.0 mi ESE 5.8 mph - N/A   Clear
1:55 PM 87.8 °F - 48.2 °F 25% 30.21 in 10.0 mi North 8.1 mph 16.1 mph N/A   Clear
2:15 PM 87.8 °F - 46.4 °F 24% 30.20 in 10.0 mi East 6.9 mph - N/A   Clear
2:35 PM 86.0 °F - 50.0 °F 29% 30.19 in 10.0 mi ENE 5.8 mph - N/A   Clear
2:55 PM 87.8 °F - 46.4 °F 24% 30.19 in 10.0 mi NNE 6.9 mph - N/A   Clear
3:15 PM 87.8 °F - 46.4 °F 24% 30.19 in 10.0 mi East 6.9 mph - N/A   Clear
3:35 PM 87.8 °F - 46.4 °F 24% 30.18 in 10.0 mi ESE 3.5 mph - N/A   Clear
3:55 PM 87.8 °F - 46.4 °F 24% 30.17 in 7.0 mi ENE 8.1 mph - N/A   Clear
4:15 PM 89.6 °F - 48.2 °F 24% 30.16 in 7.0 mi ENE 4.6 mph - N/A   Scattered Clouds
4:35 PM 87.8 °F - 50.0 °F 27% 30.16 in 10.0 mi ESE 4.6 mph - N/A   Clear
4:55 PM 87.8 °F - 48.2 °F 25% 30.16 in 10.0 mi ENE 6.9 mph - N/A   Clear
5:15 PM 86.0 °F - 50.0 °F 29% 30.15 in 10.0 mi ENE 5.8 mph - N/A   Clear
5:35 PM 86.0 °F - 51.8 °F 31% 30.15 in 10.0 mi East 5.8 mph - N/A   Clear
5:55 PM 86.0 °F - 51.8 °F 31% 30.14 in 10.0 mi SE 8.1 mph - N/A   Clear
6:15 PM 86.0 °F - 50.0 °F 29% 30.14 in 10.0 mi SE 5.8 mph - N/A   Clear
6:55 PM 84.2 °F - 51.8 °F 33% 30.14 in 10.0 mi East 4.6 mph - N/A   Clear
7:15 PM 82.4 °F - 51.8 °F 35% 30.14 in 10.0 mi East 5.8 mph - N/A   Clear
7:35 PM 82.4 °F - 51.8 °F 35% 30.15 in 10.0 mi East 4.6 mph - N/A   Clear
7:55 PM 80.6 °F 80.3 °F 53.6 °F 39% 30.15 in 10.0 mi East 3.5 mph - N/A   Clear
8:15 PM 78.8 °F - 55.4 °F 44% 30.16 in 10.0 mi ESE 3.5 mph - N/A   Clear
8:35 PM 77.0 °F - 55.4 °F 47% 30.16 in 10.0 mi East 3.5 mph - N/A   Clear
8:55 PM 75.2 °F - 57.2 °F 53% 30.17 in 10.0 mi East 3.5 mph - N/A   Clear
9:15 PM 73.4 °F - 55.4 °F 53% 30.18 in 10.0 mi East 4.6 mph - N/A   Clear
9:35 PM 73.4 °F - 55.4 °F 53% 30.18 in 10.0 mi Calm Calm - N/A   Clear
9:55 PM 73.4 °F - 55.4 °F 53% 30.18 in 10.0 mi Calm Calm - N/A   Clear
10:15 PM 71.6 °F - 55.4 °F 57% 30.19 in 10.0 mi Calm Calm - N/A   Clear
10:35 PM 69.8 °F - 55.4 °F 60% 30.20 in 10.0 mi Calm Calm - N/A   Clear
10:55 PM 69.8 °F - 57.2 °F 64% 30.20 in 10.0 mi Calm Calm - N/A   Clear
11:15 PM 68.0 °F - 59.0 °F 73% 30.21 in 10.0 mi Calm Calm - N/A   Clear
11:35 PM 68.0 °F - 59.0 °F 73% 30.21 in 10.0 mi Calm Calm - N/A   Clear
11:55 PM 68.0 °F - 59.0 °F 73% 30.21 in 10.0 mi Calm Calm - N/A   Clear